Regional Weather Roundup
Issued by NWS Cleveland, OH

Home | Current Version | Previous Version | Text Only | Print | Product List | Glossary On
Versions: 1 2 3 4 5 6 7 8 9 10 11 12 13 14 15 16 17 18 19 20 21 22 23 24 25 26 27 28 29 30 31 32 33 34 35 36 37 38 39 40 41 42 43 44 45 46 47 48 49 50
000
ASUS41 KCLE 292012
RWRCLE
OHIO REGIONAL WEATHER ROUNDUP
NATIONAL WEATHER SERVICE WILMINGTON, OH
400 PM EDT SAT APR 29 2017

NOTE: "FAIR" INDICATES FEW OR NO CLOUDS BELOW 12,000 FEET WITH NO
SIGNIFICANT WEATHER AND/OR OBSTRUCTIONS TO VISIBILITY.

OHZ001>008-015>018-024>027-034-035-043-044-292100-
   NORTHWEST OHIO

CITY           SKY/WX    TMP DP  RH WIND       PRES   REMARKS
DEFIANCE       CLOUDY    47  43  86 NE15G22   30.15F
FINDLAY        CLOUDY    49  44  83 NE15      30.15S
TOLEDO EXPRESS CLOUDY    44  42  93 E10       30.20R
TOLEDO EXEC    CLOUDY    47  42  83 NE13      30.20F
LIMA           CLOUDY    50  49  96 NE12      30.13R FOG
$$

OHZ009>014-019>023-028>033-038-089-292100-
   NORTHEAST OHIO

CITY           SKY/WX    TMP DP  RH WIND       PRES   REMARKS
CLE-HOPKINS    CLOUDY    48  41  76 NE15      30.22R
CLE-LAKEFRONT  CLOUDY    48  41  76 NE13      30.19R
CUY CO. ARPT   CLOUDY    48  45  87 NE12      30.20R
LORAIN-ELYRIA  CLOUDY    45  40  82 NE14      30.17F
ASHTABULA      CLOUDY    48  42  80 N8        30.19F
AKRON-CANTON   DRZL/FOG  56  53  90 N10       30.15R VSB 1
WOOSTER        CLOUDY    51  50  96 N13       30.16R FOG
MANSFIELD      CLOUDY    49  48  97 NE13      30.14F FOG
YOUNGSTOWN     CLOUDY    55  52  89 N8        30.15F
$$

OHZ042-051>053-060>062-070>072-077>081-292100-
  SOUTHWEST OHIO

CITY           SKY/WX    TMP DP  RH WIND       PRES   REMARKS
CINC-COVINGTON PTSUNNY   78  64  61 SE12      30.03F
CINC-LUNKEN    FAIR      78  69  73 S5        30.03F
HAMILTON       FAIR      77  64  64 VRB6      30.04F
DAYTON         PTSUNNY   74  63  68 SE8       30.05F
WRIGHT-PAT AFB FAIR      76  65  68 E8        30.05F
DAYTON GENERAL FAIR      76  63  64 S7        30.04F
WILMINGTON     FAIR      75  64  68 SE7       30.05F
$$

OHZ036-037-039>041-045>050-054>059-063>069-073>076-082>088-292100-
  CENTRAL AND SOUTHEAST OHIO

CITY           SKY/WX    TMP DP  RH WIND       PRES   REMARKS
COLUMBUS       CLOUDY    71  65  81 SW7       30.06F
OSU AIRPORT    FAIR      72  63  73 CALM      30.07F
BOLTON FIELD   SUNNY     73  64  73 S5        30.07F
RICKENBACK AFB FAIR      72  65  79 S6        30.06F
NEWARK         FAIR      73  63  70 VRB3      30.08F
MARION         CLOUDY    53  50  89 NE14      30.11F FOG
LANCASTER      FAIR      76  63  64 S6        30.08F
ZANESVILLE     FAIR      73  62  68 S7        30.08F
NEW PHILLY     PTSUNNY   70  63  78 CALM      30.10S
$$




USA.gov is the U.S. government's official web portal to all federal, state and local government web resources and services.